DW5657 Weather Reports


Display with metric or nautical units.
time (UTC)temp
F
wind
direction
speed
MPH
gust
MPH
rain 1hr
in
rain 24hr
in
rain mn
in
humidity
%
barometer
mb
20171211034709 34 26 3.0 7.0 0.00 0.00 0.00 65 1016.6
20171211033709 34 44 2.0 7.0 0.00 0.00 0.00 65 1016.5
20171211032709 34 14 3.0 6.0 0.00 0.00 0.00 64 1016.5
20171211031709 34 37 4.0 8.0 0.00 0.00 0.00 64 1016.4
20171211030710 34 41 2.0 5.0 0.00 0.00 0.00 64 1016.3
20171211025709 34 58 2.0 6.0 0.00 0.00 0.00 63 1016.3
20171211024709 34 46 2.0 5.0 0.00 0.00 0.00 63 1016.1
20171211023709 34 49 2.0 6.0 0.00 0.00 0.00 63 1016.0
20171211022709 34 26 3.0 5.0 0.00 0.00 0.00 63 1016.0
20171211021709 34 35 3.0 5.0 0.00 0.00 0.00 62 1016.1
20171211020711 34 50 2.0 6.0 0.00 0.00 0.00 62 1016.0
20171211015709 34 66 1.0 6.0 0.00 0.00 0.00 62 1015.9
20171211014715 34 25 3.0 6.0 0.00 0.00 0.00 62 1015.9
20171211013709 35 309 2.0 5.0 0.00 0.00 0.00 62 1015.9
20171211012709 35 53 2.0 3.0 0.00 0.00 0.00 62 1016.1
20171211011709 35 30 2.0 3.0 0.00 0.00 0.00 62 1016.1
20171211010709 35 89 2.0 3.0 0.00 0.00 0.00 62 1016.2
20171211005709 34 21 1.0 3.0 0.00 0.00 0.00 62 1016.1
20171211004709 34 43 2.0 3.0 0.00 0.00 0.00 62 1016.1
20171211003709 34 47 2.0 3.0 0.00 0.00 0.00 62 1016.0
20171211002709 34 41 2.0 3.0 0.00 0.00 0.00 62 1016.0
20171211001708 34 44 1.0 2.0 0.00 0.00 0.00 62 1016.1
20171211000709 34 43 2.0 3.0 0.00 0.00 0.00 62 1015.9
20171210235709 34 45 1.0 3.0 0.00 0.00 0.00 62 1015.7
20171210234709 34 93 1.0 3.0 0.00 0.00 0.00 62 1015.7
20171210233708 34 54 1.0 3.0 0.00 0.00 0.00 61 1015.8
20171210232708 34 46 2.0 3.0 0.00 0.00 0.00 61 1015.7
20171210231709 34 344 1.0 2.0 0.00 0.00 0.00 60 1015.7
20171210230709 34 344 2.0 3.0 0.00 0.00 0.00 60 1015.6
20171210225709 35 62 2.0 6.0 0.00 0.00 0.00 59 1015.5
20171210224710 35 35 1.0 6.0 0.00 0.00 0.00 59 1015.4
20171210223709 35 36 3.0 6.0 0.00 0.00 0.00 58 1015.0
20171210222709 35 19 3.0 6.0 0.00 0.00 0.00 58 1014.8
20171210221709 35 59 3.0 7.0 0.00 0.00 0.00 58 1014.6
20171210220709 35 32 3.0 7.0 0.00 0.00 0.00 57 1014.5
20171210215710 36 37 3.0 9.0 0.00 0.00 0.00 57 1014.3
20171210214709 36 356 2.0 12.0 0.00 0.00 0.00 58 1014.1
20171210213709 36 1 4.0 9.0 0.00 0.00 0.00 58 1013.8
20171210212709 36 12 5.0 10.0 0.00 0.00 0.00 58 1013.6
20171210211708 36 10 3.0 9.0 0.00 0.00 0.00 58 1013.7
20171210210709 36 350 3.0 10.0 0.00 0.00 0.00 59 1013.8
20171210205709 36 305 5.0 13.0 0.00 0.00 0.00 60 1014.0
20171210204709 35 315 5.0 12.0 0.00 0.00 0.00 60 1014.0
20171210203709 35 41 5.0 12.0 0.00 0.00 0.00 60 1014.1
20171210202709 35 52 6.0 13.0 0.00 0.00 0.00 61 1014.0
20171210201709 35 30 5.0 14.0 0.00 0.00 0.00 62 1014.0
20171210200709 35 353 6.0 9.0 0.00 0.00 0.00 63 1014.0
20171210195709 34 296 3.0 9.0 0.00 0.00 0.00 64 1014.3
20171210194709 34 29 4.0 12.0 0.00 0.00 0.00 64 1014.6
20171210193708 34 47 4.0 10.0 0.00 0.00 0.00 64 1014.8
20171210192709 33 345 3.0 12.0 0.00 0.00 0.00 64 1014.9
20171210191709 33 352 3.0 10.0 0.00 0.00 0.00 65 1015.1
20171210190709 33 315 6.0 9.0 0.00 0.00 0.00 65 1015.3
20171210185709 33 311 5.0 16.0 0.00 0.00 0.00 65 1015.5
20171210184709 33 5 6.0 17.0 0.00 0.00 0.00 66 1015.7
20171210183708 32 311 3.0 9.0 0.00 0.00 0.00 67 1015.9
20171210182708 32 17 5.0 12.0 0.00 0.00 0.00 67 1016.1
20171210181709 32 319 5.0 12.0 0.00 0.00 0.00 68 1016.3
20171210180709 32 39 5.0 12.0 0.00 0.00 0.00 68 1016.7
20171210175709 31 2 5.0 14.0 0.00 0.00 0.00 68 1016.9
20171210174708 31 34 6.0 13.0 0.00 0.00 0.00 67 1017.1
20171210173709 31 48 6.0 14.0 0.00 0.00 0.00 68 1017.2
20171210172709 31 26 5.0 10.0 0.00 0.00 0.00 68 1017.2
20171210171709 31 346 5.0 18.0 0.00 0.00 0.00 68 1017.5
20171210170709 30 40 5.0 12.0 0.00 0.00 0.00 68 1017.8
20171210165709 30 284 5.0 15.0 0.00 0.00 0.00 68 1017.9
20171210164709 30 11 4.0 14.0 0.00 0.00 0.00 69 1018.4
20171210163709 30 38 8.0 15.0 0.00 0.00 0.00 69 1018.4
20171210162709 30 53 6.0 10.0 0.00 0.00 0.00 70 1018.7
20171210161709 29 29 4.0 10.0 0.00 0.00 0.00 71 1018.9
20171210160709 29 1 3.0 15.0 0.00 0.00 0.00 72 1019.1
20171210155709 28 68 6.0 12.0 0.00 0.00 0.00 73 1019.2
20171210154709 28 348 5.0 10.0 0.00 0.00 0.00 74 1019.4
20171210153710 28 65 3.0 10.0 0.00 0.00 0.00 75 1019.5
20171210152708 27 16 3.0 7.0 0.00 0.00 0.00 75 1019.6
20171210151709 27 25 2.0 7.0 0.00 0.00 0.00 75 1019.5
20171210150709 27 58 4.0 7.0 0.00 0.00 0.00 75 1019.5
20171210145709 26 5 2.0 7.0 0.00 0.00 0.00 76 1019.5
20171210144708 26 22 2.0 6.0 0.00 0.00 0.00 76 1019.6
20171210143709 26 54 3.0 6.0 0.00 0.00 0.00 77 1019.5
20171210142709 25 46 2.0 6.0 0.00 0.00 0.00 77 1019.3
20171210141709 25 62 3.0 7.0 0.00 0.00 0.00 78 1019.4
20171210140708 25 46 2.0 8.0 0.00 0.00 0.00 78 1019.4
20171210135709 24 20 3.0 8.0 0.00 0.00 0.00 78 1019.4
20171210134709 24 23 2.0 5.0 0.00 0.00 0.00 79 1019.4
20171210133709 24 32 3.0 7.0 0.00 0.00 0.00 78 1019.4
20171210132709 24 31 3.0 6.0 0.00 0.00 0.00 79 1019.4
20171210131708 23 7 0.0 3.0 0.00 0.00 0.00 78 1019.6
20171210130709 23 47 3.0 8.0 0.00 0.00 0.00 78 1019.5
20171210125709 23 34 1.0 6.0 0.00 0.00 0.00 78 1019.7
20171210124709 23 43 3.0 8.0 0.00 0.00 0.00 78 1019.8
20171210123709 23 63 2.0 9.0 0.00 0.00 0.00 77 1019.6
20171210122709 24 38 3.0 9.0 0.00 0.00 0.00 77 1019.4
20171210121709 24 17 2.0 6.0 0.00 0.00 0.00 77 1019.4
20171210120709 24 49 1.0 5.0 0.00 0.00 0.00 76 1019.4
20171210115709 24 52 1.0 5.0 0.00 0.00 0.00 76 1019.5
20171210114708 24 23 2.0 6.0 0.00 0.00 0.00 76 1019.2
20171210113708 24 28 2.0 3.0 0.00 0.00 0.00 76 1019.2
20171210112708 24 48 1.0 6.0 0.00 0.00 0.00 75 1019.2
20171210111709 25 51 1.0 7.0 0.00 0.00 0.00 75 1019.2
20171210110709 25 89 3.0 6.0 0.00 0.00 0.00 75 1019.1
20171210105708 25 28 1.0 5.0 0.00 0.00 0.00 75 1019.0
20171210104709 25 59 3.0 6.0 0.00 0.00 0.00 75 1019.0
20171210103709 26 59 1.0 3.0 0.00 0.00 0.00 75 1019.0
20171210102708 26 22 1.0 3.0 0.00 0.00 0.00 75 1018.9
20171210101708 26 60 2.0 6.0 0.00 0.00 0.00 75 1018.8
20171210100708 26 24 2.0 3.0 0.00 0.00 0.00 75 1018.6
20171210095708 27 64 2.0 3.0 0.00 0.00 0.00 75 1018.5
20171210094709 27 56 1.0 5.0 0.00 0.00 0.00 75 1018.4
20171210093709 27 60 2.0 5.0 0.00 0.00 0.00 75 1018.7
20171210092709 27 32 1.0 6.0 0.00 0.00 0.00 76 1018.7
20171210091709 27 73 2.0 7.0 0.00 0.00 0.00 76 1018.6
20171210090708 28 349 3.0 8.0 0.00 0.00 0.00 76 1018.6
20171210085709 28 117 2.0 6.0 0.00 0.00 0.00 77 1018.6
20171210084708 28 73 1.0 3.0 0.00 0.00 0.00 77 1018.6
20171210083708 28 97 2.0 6.0 0.00 0.00 0.00 77 1018.6
20171210082709 28 27 2.0 8.0 0.00 0.00 0.00 77 1018.6
20171210081709 28 26 1.0 6.0 0.00 0.00 0.00 77 1018.5
20171210080708 29 85 1.0 6.0 0.00 0.00 0.00 77 1018.4
20171210075708 29 47 2.0 5.0 0.00 0.00 0.00 78 1018.3
20171210074709 29 64 1.0 5.0 0.00 0.00 0.00 77 1018.4
20171210073708 29 102 1.0 5.0 0.00 0.00 0.00 77 1018.2
20171210072708 29 98 1.0 8.0 0.00 0.00 0.00 77 1018.2
20171210071709 29 122 1.0 6.0 0.00 0.00 0.00 77 1018.0
20171210070709 29 91 3.0 6.0 0.00 0.00 0.00 77 1018.0
20171210065708 29 50 2.0 6.0 0.00 0.00 0.00 77 1017.9
20171210064708 29 91 2.0 12.0 0.00 0.00 0.00 77 1017.9
20171210063709 29 65 4.0 12.0 0.00 0.00 0.00 78 1017.7
20171210062709 29 85 3.0 8.0 0.00 0.00 0.00 78 1017.7
20171210061709 29 63 3.0 7.0 0.00 0.00 0.00 78 1017.6
20171210060709 30 111 2.0 9.0 0.00 0.00 0.00 78 1017.5
20171210055709 30 133 3.0 9.0 0.00 0.00 0.00 79 1017.4
20171210054708 30 80 2.0 8.0 0.00 0.00 0.00 79 1017.3
20171210053708 30 70 2.0 9.0 0.00 0.00 0.00 79 1017.3
20171210052709 30 74 2.0 7.0 0.00 0.00 0.00 79 1017.1
20171210051708 30 119 3.0 7.0 0.00 0.00 0.00 79 1017.0
20171210050709 30 56 5.0 9.0 0.00 0.00 0.00 79 1016.9
20171210045709 30 137 4.0 10.0 0.00 0.00 0.00 80 1016.9
20171210044708 30 77 3.0 9.0 0.00 0.00 0.00 80 1016.8
20171210043709 30 110 3.0 12.0 0.00 0.00 0.00 80 1016.8
20171210042708 30 80 3.0 9.0 0.00 0.00 0.00 80 1016.7
20171210041708 30 100 6.0 16.0 0.00 0.00 0.00 80 1016.6
20171210040708 30 87 3.0 12.0 0.00 0.00 0.00 81 1016.4
20171210035709 30 101 3.0 9.0 0.00 0.00 0.00 81 1016.2